User: anonymous   Login
Location: Unspecified
(0.0000°N, 0.0000°E)
Time: 09:59:41
(UTC+00:00)
Language:

STARLINK-34063 - Orbit

View from above orbital plane
View from above orbital plane
View from above satellite
View from above satellite

Ground track
Ground track

The orbit is defined by the following mean orbital elements,

1 64185U          26145.26869252 +.00000000 +00000-0 +55074-3 0 00009
2 64185  53.1584  95.1493 0001092  78.9651 281.1473 15.31716719    08
Epoch (UTC): 25 May 2026 06:26:55
Eccentricity: 0.0001092
inclination: 53.1584°
perigee height: 470 km
apogee height: 471 km
right ascension of ascending node: 95.1493°
argument of perigee: 78.9651°
revolutions per day: 15.31716719
mean anomaly at epoch: 281.1473°

The dashed part of the orbit path shows where the satellite is in the earth's shadow,  

DLR